IZ1RFL-3 Weather Reports


time (UTC)temp
C
wind
direction
speed
KPH
gust
KPH
rain 1hr
cm
rain 24hr
cm
rain mn
cm
humidity
%
barometer
mb
20260508031608 12 0 0.0 0.0 0.00 0.00 0.00 74 1015.3
20260508030108 12 0 0.0 0.0 0.00 0.00 0.00 74 1015.3
20260508024608 12 0 0.0 0.0 0.00 0.00 0.00 74 1015.3
20260508023108 13 0 0.0 0.0 0.00 0.00 0.00 73 1015.2
20260508021608 13 0 0.0 0.0 0.00 0.00 0.00 73 1015.2
20260508020108 13 0 0.0 0.0 0.00 0.00 0.00 74 1015.2
20260508014608 13 0 0.0 0.0 0.00 0.00 0.00 73 1015.1
20260508013108 13 0 0.0 0.0 0.00 0.00 0.00 73 1015.2
20260508011608 13 0 0.0 0.0 0.00 0.00 0.00 73 1015.3
20260508010108 13 0 0.0 0.0 0.00 0.00 0.00 73 1015.4
20260508004608 13 0 0.0 0.0 0.00 0.00 0.00 72 1015.3
20260508003108 12 0 0.0 0.0 0.00 0.00 0.00 73 1015.4
20260508001608 13 0 0.0 0.0 0.00 0.00 0.00 71 1015.3
20260508000108 13 0 0.0 0.0 0.00 0.00 0.00 71 1015.5
20260507234608 13 0 0.0 0.0 0.00 0.00 0.00 69 1015.5
20260507233108 13 0 0.0 0.0 0.00 0.00 0.00 71 1015.8
20260507231608 14 0 0.0 0.0 0.00 0.00 0.00 66 1015.8
20260507230107 14 0 0.0 0.0 0.00 0.00 0.00 64 1015.7
20260507224608 15 0 0.0 0.0 0.00 0.00 0.00 62 1015.6
20260507223108 15 0 0.0 0.0 0.00 0.00 0.00 63 1015.6
20260507221608 15 0 0.0 0.0 0.00 0.00 0.00 63 1015.5
20260507220108 15 0 0.0 0.0 0.00 0.00 0.00 63 1015.5
20260507214607 15 0 0.0 0.0 0.00 0.00 0.00 63 1015.3
20260507213108 15 0 0.0 0.0 0.00 0.00 0.00 61 1015.2
20260507211607 15 0 0.0 0.0 0.00 0.00 0.00 60 1015.1
20260507210108 16 0 0.0 0.0 0.00 0.00 0.00 59 1015.1
20260507204608 16 0 0.0 0.0 0.00 0.00 0.00 57 1015.0
20260507203107 16 0 0.0 0.0 0.00 0.00 0.00 57 1015.0
20260507201607 16 0 0.0 0.0 0.00 0.00 0.00 56 1015.0
20260507200107 16 0 0.0 0.0 0.00 0.00 0.00 56 1014.7
20260507194607 16 0 0.0 0.0 0.00 0.00 0.00 55 1014.5
20260507193108 16 0 0.0 0.0 0.00 0.00 0.00 54 1014.3
20260507191607 16 0 0.0 0.0 0.00 0.00 0.00 53 1014.2
20260507190107 16 0 0.0 0.0 0.00 0.00 0.00 53 1014.1
20260507184607 17 0 0.0 0.0 0.00 0.00 0.00 51 1014.0
20260507183107 17 0 0.0 0.0 0.00 0.00 0.00 49 1013.9
20260507181607 17 0 0.0 0.0 0.00 0.00 0.00 49 1013.8
20260507180108 17 0 0.0 0.0 0.00 0.00 0.00 49 1013.8
20260507174607 17 0 0.0 0.0 0.00 0.00 0.00 49 1013.7
20260507173107 18 0 0.0 0.0 0.00 0.00 0.00 47 1013.7
20260507171607 18 0 0.0 0.0 0.00 0.00 0.00 45 1013.5
20260507170107 18 0 0.0 0.0 0.00 0.00 0.00 46 1013.4
20260507164608 18 0 0.0 0.0 0.00 0.00 0.00 48 1013.4
20260507163107 18 0 0.0 0.0 0.00 0.00 0.00 53 1013.4
20260507161607 18 0 0.0 0.0 0.00 0.00 0.00 52 1013.3
20260507160107 20 0 0.0 0.0 0.00 0.00 0.00 46 1013.3
20260507154607 21 0 0.0 0.0 0.00 0.00 0.00 38 1013.2
20260507153107 21 0 0.0 0.0 0.00 0.00 0.00 36 1013.3
20260507151607 21 0 0.0 0.0 0.00 0.00 0.00 35 1013.3
20260507150107 21 0 0.0 0.0 0.00 0.00 0.00 32 1013.4
20260507144607 21 0 0.0 0.0 0.00 0.00 0.00 33 1013.4
20260507143107 21 0 0.0 0.0 0.00 0.00 0.00 37 1013.5
20260507141607 21 0 0.0 0.0 0.00 0.00 0.00 33 1013.7
20260507140107 22 0 0.0 0.0 0.00 0.00 0.00 35 1013.9
20260507134607 21 0 0.0 0.0 0.00 0.00 0.00 39 1014.0
20260507133107 20 0 0.0 0.0 0.00 0.00 0.00 40 1014.2
20260507131607 20 0 0.0 0.0 0.00 0.00 0.00 43 1014.2
20260507130107 20 0 0.0 0.0 0.00 0.00 0.00 42 1014.3
20260507124607 21 0 0.0 0.0 0.00 0.00 0.00 37 1014.4
20260507123107 21 0 0.0 0.0 0.00 0.00 0.00 38 1014.5
20260507121607 19 0 0.0 0.0 0.00 0.00 0.00 43 1014.7
20260507120107 22 0 0.0 0.0 0.00 0.00 0.00 39 1014.9
20260507114607 21 0 0.0 0.0 0.00 0.00 0.00 42 1014.9
20260507113107 20 0 0.0 0.0 0.00 0.00 0.00 48 1015.1
20260507111607 19 0 0.0 0.0 0.00 0.00 0.00 45 1015.3
20260507110107 21 0 0.0 0.0 0.00 0.00 0.00 44 1015.4
20260507104607 21 0 0.0 0.0 0.00 0.00 0.00 47 1015.5
20260507103107 18 0 0.0 0.0 0.00 0.00 0.00 53 1015.7
20260507101607 18 0 0.0 0.0 0.00 0.00 0.00 52 1015.6
20260507100107 20 0 0.0 0.0 0.00 0.00 0.00 49 1015.8
20260507094607 18 0 0.0 0.0 0.00 0.00 0.00 52 1015.7
20260507093107 17 0 0.0 0.0 0.00 0.00 0.00 60 1015.7
20260507091607 17 0 0.0 0.0 0.00 0.00 0.00 63 1015.7
20260507090107 17 0 0.0 0.0 0.00 0.00 0.00 60 1015.7
20260507084607 16 0 0.0 0.0 0.00 0.00 0.00 62 1015.5
20260507083107 15 0 0.0 0.0 0.00 0.00 0.00 69 1015.4
20260507081607 16 0 0.0 0.0 0.00 0.00 0.00 64 1015.4
20260507080107 16 0 0.0 0.0 0.00 0.00 0.00 63 1015.3
20260507074607 15 0 0.0 0.0 0.00 0.00 0.00 66 1015.2
20260507073107 14 0 0.0 0.0 0.00 0.00 0.00 70 1015.2
20260507071607 15 0 0.0 0.0 0.00 0.00 0.00 71 1015.1
20260507070107 13 0 0.0 0.0 0.00 0.00 0.00 76 1015.0
20260507064607 13 0 0.0 0.0 0.00 0.00 0.00 77 1015.0
20260507063107 13 0 0.0 0.0 0.00 0.00 0.00 79 1014.9
20260507061607 12 0 0.0 0.0 0.00 0.00 0.00 80 1014.7
20260507060107 12 0 0.0 0.0 0.00 0.00 0.00 79 1014.6
20260507054607 12 0 0.0 0.0 0.00 0.00 0.00 80 1014.4
20260507053107 12 0 0.0 0.0 0.00 0.00 0.00 80 1014.2
20260507051607 12 0 0.0 0.0 0.00 0.00 0.00 80 1013.9
20260507050107 13 0 0.0 0.0 0.00 0.00 0.00 79 1013.6
20260507044607 12 0 0.0 0.0 0.00 0.00 0.00 80 1013.5
20260507043107 12 0 0.0 0.0 0.00 0.00 0.00 80 1013.4
20260507041607 12 0 0.0 0.0 0.00 0.00 0.00 80 1013.2
20260507040107 12 0 0.0 0.0 0.00 0.00 0.00 79 1013.4
20260507034607 12 0 0.0 0.0 0.00 0.00 0.00 81 1013.3
20260507033107 12 0 0.0 0.0 0.00 0.00 0.00 81 1013.1